User: anonymous   Login
Location: Oshawa
(43.9000°N, 78.8670°W)
Time: 03:35:12
(UTC-05:00)
Language:

Iridium 54 - Orbit

View from above orbital plane
View from above orbital plane
View from above satellite
View from above satellite

Ground track
Ground track

The orbit data is extracted from the following two-line orbital elements,

1 25171U 98010C   16341.38722225  .00000218  00000-0  70653-4 0  9996
2 25171  86.3983  71.0097 0002219  96.3536 263.7913 14.34217739984299
Epoch (UTC): 06 December 2016 09:17:36
Eccentricity: 0.0002219
inclination: 86.3983°
perigee height: 776 km
apogee height: 779 km
right ascension of ascending node: 71.0097°
argument of perigee: 96.3536°
revolutions per day: 14.34217739
mean anomaly at epoch: 263.7913°
orbit number at epoch: 98429

The dashed part of the orbit path shows where the satellite is in the earth's shadow,  

DLR